Wind_Speed
37 37 37 37 38 39 39 39 38 38 39 40 40 39 40 40 39 39 38 39 39 40 41 40 40 41 41 42 43 43 43 43 43 42 43 43 44 44 45 45 46 46 46
36 36 36 37 37 37 38 38 38 38 37 38 38 38 39 39 39 39 39 39 40 40 41 40 40 40 41 42 43 43 43 43 43 43 43 44 44 44 45 46 46 47 47
35 36 35 35 35 36 37 36 36 37 37 37 38 37 38 39 39 39 39 39 39 40 40 40 40 40 41 42 42 43 43 42 42 43 43 43 43 44 44 44 44 45 45
34 35 35 36 35 34 35 36 36 36 36 37 37 37 37 38 40 39 39 39 38 37 38 39 39 40 41 41 41 42 41 41 41 42 42 42 43 43 43 43 42 42 42
35 34 35 36 36 35 34 35 35 36 37 37 37 37 37 38 39 39 39 38 39 38 38 38 39 40 41 41 41 41 41 40 41 41 41 41 42 43 43 42 42 42 41
35 35 35 36 36 35 35 35 35 36 36 37 37 37 38 38 39 39 39 39 40 40 39 40 41 41 41 41 41 40 40 40 40 41 41 41 41 41 42 42 42 41 41
36 36 35 35 36 36 36 36 36 36 36 37 38 38 38 38 39 39 40 40 41 41 41 41 42 42 41 41 41 40 40 40 40 40 39 40 40 40 41 41 41 40 40
35 35 35 36 35 36 36 36 36 37 36 36 36 38 38 38 39 39 40 41 41 42 42 42 42 42 41 41 41 41 40 40 40 40 39 39 39 39 39 40 39 39 38
33 34 34 35 36 36 36 36 36 36 37 37 37 38 39 39 39 40 41 41 41 42 43 43 42 41 41 41 41 40 40 39 39 39 38 37 37 37 38 38 37 37 36
31 32 33 33 34 35 36 36 36 37 37 37 37 37 38 39 40 40 41 41 42 42 42 42 41 40 39 40 40 40 39 39 39 38 38 37 36 36 36 36 36 36 36
31 32 32 32 33 34 35 36 37 37 37 38 38 37 38 39 39 40 40 40 41 42 42 42 42 41 39 39 39 39 38 38 38 37 37 36 36 35 35 35 36 36 35
32 33 33 33 34 35 35 36 36 37 36 37 37 37 38 39 39 38 38 39 40 40 40 41 41 40 39 39 39 38 38 37 37 37 37 36 35 35 35 35 36 35 34
33 33 34 34 35 35 36 36 36 36 36 37 37 38 38 38 38 38 38 39 39 39 39 39 39 39 38 37 37 36 36 36 37 37 36 36 36 36 36 35 35 34 33
33 34 34 34 35 35 35 35 35 36 36 36 36 37 37 37 37 38 38 39 39 38 38 38 38 37 37 36 36 36 36 36 36 36 37 36 36 36 36 35 34 34 33
33 33 33 34 34 34 34 34 34 35 35 35 35 35 35 36 36 37 37 37 37 37 37 36 36 36 36 37 36 36 36 36 37 36 36 35 35 35 35 35 34 33 33
32 32 32 32 32 32 32 33 33 34 35 35 36 36 36 35 35 36 36 36 36 36 36 36 36 36 36 37 37 37 37 36 36 36 36 36 35 35 34 34 34 33 33
31 31 32 32 32 32 32 32 33 33 33 34 35 35 35 34 34 34 34 33 34 34 35 35 35 35 35 36 36 36 36 36 35 35 35 34 34 33 33 33 33 33 32
30 30 30 31 31 31 32 32 32 32 32 32 33 33 33 33 33 33 33 32 32 33 33 33 34 34 34 34 33 33 33 34 34 34 34 33 33 33 33 32 32 32 32
27 27 28 28 29 29 29 29 30 30 30 30 31 31 31 30 30 31 31 32 32 32 32 31 31 31 31 32 32 32 32 32 33 33 32 32 32 32 32 31 32 32 31
25 26 26 27 28 28 28 29 29 30 30 30 30 29 29 29 28 29 29 29 30 30 30 30 29 29 29 30 31 31 32 32 32 32 32 32 32 32 32 31 32 32 31
24 24 25 26 26 26 27 27 28 28 28 28 28 27 27 27 27 26 27 27 28 28 28 28 28 28 28 28 28 29 29 30 31 31 31 31 31 31 31 31 31 30 30
24 25 25 25 24 24 25 26 26 26 26 27 26 26 26 26 26 26 26 26 27 27 28 28 28 28 28 28 27 27 27 27 28 29 29 30 30 30 29 29 28 28 27
24 25 25 25 24 24 24 25 25 25 25 25 26 25 25 25 25 25 25 26 26 26 27 27 27 27 27 27 26 26 26 26 26 27 27 27 27 27 26 25 25 24 24
23 23 23 24 24 24 24 24 24 24 24 24 25 25 25 25 24 24 25 24 24 25 25 26 26 25 25 25 25 25 25 25 24 24 24 24 24 24 23 23 22 22 21
22 22 23 23 23 24 24 24 24 24 24 24 24 24 24 24 24 24 24 24 24 24 24 24 23 23 23 23 23 23 23 23 23 23 23 23 22 22 21 21 20 20 19
21 22 22 22 22 23 23 23 23 23 23 23 23 23 23 24 23 23 23 23 22 22 22 22 22 22 22 22 22 22 22 22 22 21 21 21 21 20 19 19 18 18 18
Wind_Direction
251 250 250 251 252 253 252 251 251 251 252 254 255 256 257 258 258 258 258 259 260 261 262 262 262 262 263 265 267 268 269 271 273 274 275 277 278 278 278 279 281 282 283
250 249 249 249 250 251 250 249 249 250 252 254 254 256 258 257 257 257 259 260 261 261 261 261 262 262 264 265 267 268 269 271 273 274 275 276 278 278 279 280 281 283 284
249 249 248 247 248 249 248 248 249 250 253 254 255 256 256 256 256 258 258 259 260 261 261 261 261 263 264 265 267 269 270 271 273 274 275 276 277 278 279 281 282 282 283
249 249 248 248 249 250 249 249 252 253 254 255 255 255 256 257 257 257 258 258 259 260 260 262 262 264 265 266 268 269 271 272 273 274 275 276 277 278 279 281 283 283 284
249 249 248 248 250 250 251 251 253 254 254 254 255 255 256 258 257 257 258 259 259 260 262 263 264 264 266 267 268 269 271 273 273 274 275 276 277 278 279 281 283 284 284
250 250 249 249 250 251 252 252 252 252 252 255 256 256 257 258 258 257 258 260 260 262 263 264 265 266 267 268 269 269 270 272 273 274 275 277 278 279 280 281 283 285 285
251 251 250 250 250 251 253 254 253 253 254 255 256 257 257 257 258 258 259 260 261 263 264 265 265 266 267 268 268 269 270 271 272 274 276 277 278 279 280 282 283 284 285
252 252 251 251 251 253 254 254 253 254 254 256 257 258 259 260 261 261 261 262 262 263 264 265 266 267 267 268 268 269 270 271 273 274 275 277 278 279 280 281 283 283 284
253 252 251 251 251 252 253 254 256 255 255 256 258 259 260 260 261 261 261 262 263 263 264 265 267 267 266 267 268 269 271 272 272 272 274 276 278 280 280 281 282 283 283
253 252 252 252 252 253 254 256 257 257 257 258 259 261 261 261 262 262 263 263 263 263 263 264 265 265 265 266 267 268 270 271 272 272 274 275 278 280 280 281 281 282 283
253 252 252 253 254 254 256 257 258 259 259 259 261 262 262 263 264 264 264 264 264 263 263 264 264 264 265 265 267 267 268 269 270 272 273 275 278 280 282 282 282 281 282
252 253 254 255 255 257 258 258 259 259 259 260 262 263 264 265 264 264 264 264 265 265 265 264 264 263 264 265 266 267 267 268 269 271 272 274 277 280 282 282 281 280 280
254 255 256 257 258 259 260 260 259 259 260 262 262 263 265 264 264 264 264 266 267 267 267 266 263 263 263 264 265 265 267 269 270 271 272 275 278 280 281 281 280 280 280
256 256 256 257 258 259 259 259 259 260 262 262 263 264 264 265 265 265 266 267 267 267 266 264 263 262 262 262 264 265 267 269 270 270 273 276 277 278 278 279 278 278 279
259 257 256 256 258 259 260 259 259 260 262 262 263 264 264 266 266 266 267 268 268 267 265 264 262 262 262 262 264 266 267 268 269 270 273 275 277 276 276 277 277 276 277
258 258 257 256 257 258 259 259 260 261 261 262 262 264 266 267 266 266 267 267 266 264 263 263 263 263 262 263 264 266 266 267 269 269 271 274 275 275 276 276 275 276 276
258 258 258 257 257 258 259 261 262 262 262 263 263 264 265 265 264 265 265 265 265 264 263 262 263 263 263 264 265 266 267 268 269 270 272 272 273 273 275 276 275 275 275
257 257 257 258 259 260 260 261 261 261 262 263 263 264 264 264 264 264 264 264 264 264 264 263 263 263 263 264 265 266 267 268 268 269 270 270 272 273 274 275 275 275 275
257 257 258 259 260 260 261 261 261 262 262 263 264 264 264 265 265 265 264 263 264 264 264 264 265 264 264 264 264 265 267 266 266 267 268 270 272 273 273 274 274 274 274
258 259 260 261 262 263 263 263 262 261 262 264 265 265 265 265 265 265 265 265 264 264 264 264 265 265 265 264 264 265 266 264 264 266 267 268 270 271 272 272 273 274 272
259 260 263 263 264 263 263 263 262 261 263 264 265 265 264 264 265 265 266 266 265 264 263 263 264 265 265 265 266 266 266 266 266 265 265 267 269 271 271 271 273 273 271
259 261 264 264 264 263 262 262 261 261 263 263 262 262 263 264 265 267 267 267 265 265 264 264 264 265 265 265 265 266 266 266 266 265 265 266 269 270 271 271 271 271 268
260 261 262 263 263 263 262 261 261 262 262 262 260 260 262 265 266 267 267 266 265 265 265 265 265 265 265 265 264 265 265 265 265 265 265 266 268 269 269 269 269 268 266
259 260 261 262 262 262 262 263 262 261 261 261 261 260 262 264 265 266 266 265 265 266 265 265 266 266 266 266 265 265 265 265 264 264 265 266 268 268 267 266 266 265 264
258 260 260 260 259 260 262 263 262 261 262 262 263 261 262 264 265 266 265 265 265 265 265 267 267 266 266 266 265 265 265 264 263 263 263 264 265 264 263 262 262 262 261
259 258 259 260 261 261 261 262 262 261 261 263 262 261 263 265 265 264 263 264 264 264 265 265 266 266 265 265 265 264 264 263 262 261 261 261 262 261 260 258 258 259 258
Height
5630 5633 5635 5637 5639 5641 5643 5645 5647 5649 5651 5653 5655 5657 5659 5660 5662 5663 5664 5666 5666 5667 5667 5668 5669 5669 5670 5671 5671 5671 5671 5671 5671 5671 5670 5668 5666 5664 5663 5661 5660 5658 5656
5620 5623 5625 5627 5629 5631 5633 5635 5637 5640 5641 5643 5645 5647 5648 5650 5652 5653 5654 5655 5656 5657 5657 5658 5658 5659 5659 5660 5660 5660 5660 5659 5659 5659 5658 5656 5655 5653 5651 5649 5647 5645 5643
5611 5613 5615 5617 5620 5622 5624 5626 5628 5630 5632 5634 5635 5637 5639 5640 5641 5643 5644 5645 5646 5646 5646 5647 5647 5648 5648 5649 5648 5648 5648 5648 5647 5647 5646 5645 5643 5641 5639 5637 5634 5632 5630
5602 5604 5606 5608 5610 5612 5615 5617 5618 5620 5622 5624 5626 5627 5629 5630 5631 5633 5634 5635 5635 5636 5636 5637 5637 5637 5638 5638 5637 5637 5636 5636 5635 5635 5634 5633 5631 5629 5627 5625 5623 5620 5618
5593 5595 5597 5599 5601 5603 5605 5607 5609 5611 5612 5614 5616 5617 5619 5620 5621 5622 5624 5624 5625 5626 5626 5626 5626 5627 5626 5626 5626 5626 5625 5625 5624 5623 5623 5621 5620 5617 5615 5613 5611 5609 5607
5584 5586 5588 5590 5592 5594 5596 5598 5599 5601 5602 5604 5606 5607 5609 5610 5611 5612 5613 5614 5615 5615 5616 5616 5616 5616 5616 5615 5615 5615 5614 5614 5613 5613 5612 5610 5608 5606 5604 5602 5600 5598 5597
5575 5577 5579 5581 5583 5585 5586 5588 5590 5591 5593 5594 5596 5597 5598 5599 5600 5601 5602 5603 5603 5604 5605 5605 5605 5604 5604 5604 5604 5604 5603 5603 5602 5601 5600 5599 5597 5596 5594 5592 5589 5587 5586
5565 5567 5570 5572 5573 5575 5577 5578 5580 5581 5583 5584 5585 5586 5587 5589 5590 5590 5591 5592 5592 5593 5593 5593 5593 5593 5592 5593 5593 5593 5592 5592 5591 5591 5590 5589 5587 5585 5583 5581 5579 5578 5576
5556 5558 5560 5562 5564 5565 5567 5568 5570 5571 5572 5574 5575 5576 5577 5578 5579 5579 5580 5580 5581 5581 5581 5581 5581 5582 5582 5582 5582 5582 5582 5581 5580 5580 5579 5578 5576 5574 5573 5571 5570 5568 5567
5547 5548 5550 5551 5553 5555 5557 5558 5559 5561 5562 5563 5564 5565 5566 5567 5567 5568 5568 5569 5569 5570 5570 5570 5570 5570 5570 5570 5570 5571 5571 5571 5570 5569 5568 5568 5566 5565 5563 5561 5560 5558 5557
5537 5538 5540 5542 5543 5545 5546 5548 5549 5550 5551 5552 5554 5554 5555 5555 5556 5556 5556 5556 5557 5557 5557 5558 5558 5559 5559 5559 5559 5560 5560 5560 5559 5559 5558 5558 5556 5555 5553 5552 5550 5549 5548
5527 5529 5530 5532 5533 5535 5536 5537 5538 5539 5540 5541 5542 5543 5543 5544 5544 5544 5544 5544 5545 5545 5545 5546 5546 5547 5548 5548 5548 5549 5549 5549 5549 5549 5548 5548 5547 5546 5544 5542 5541 5539 5538
5517 5519 5520 5521 5523 5524 5525 5526 5527 5528 5529 5530 5531 5532 5532 5533 5533 5533 5533 5533 5532 5533 5533 5534 5535 5535 5536 5537 5538 5538 5539 5538 5538 5538 5539 5538 5537 5536 5535 5533 5532 5530 5529
5507 5509 5510 5511 5512 5513 5514 5515 5516 5517 5519 5519 5520 5520 5521 5521 5522 5522 5522 5522 5521 5521 5522 5522 5523 5524 5525 5527 5528 5528 5528 5528 5528 5529 5529 5528 5527 5526 5525 5524 5523 5522 5521
5497 5499 5500 5501 5502 5503 5504 5505 5506 5507 5508 5509 5509 5509 5510 5510 5510 5510 5510 5510 5510 5510 5510 5511 5512 5513 5514 5516 5517 5517 5517 5518 5518 5518 5518 5518 5517 5516 5515 5515 5514 5513 5512
5488 5489 5490 5491 5492 5493 5494 5495 5495 5497 5497 5498 5498 5499 5499 5499 5499 5499 5499 5499 5499 5499 5499 5500 5501 5502 5503 5504 5506 5506 5507 5507 5508 5508 5508 5508 5507 5507 5506 5505 5504 5504 5503
5478 5479 5481 5482 5483 5483 5484 5485 5486 5486 5487 5487 5487 5488 5488 5488 5488 5488 5488 5488 5488 5488 5489 5490 5491 5492 5493 5494 5495 5495 5496 5497 5497 5498 5498 5498 5497 5497 5496 5496 5495 5494 5494
5469 5470 5471 5472 5473 5474 5475 5475 5476 5476 5477 5477 5477 5477 5477 5477 5477 5477 5477 5478 5478 5478 5479 5480 5481 5481 5482 5483 5484 5485 5486 5487 5487 5488 5488 5488 5488 5487 5487 5486 5486 5485 5485
5460 5461 5462 5463 5463 5464 5465 5465 5466 5466 5467 5467 5467 5467 5467 5467 5467 5467 5467 5468 5468 5469 5469 5470 5470 5471 5472 5473 5474 5475 5475 5476 5477 5477 5478 5478 5478 5478 5478 5477 5477 5476 5476
5452 5453 5453 5454 5454 5455 5455 5456 5456 5457 5457 5458 5458 5458 5458 5458 5458 5458 5458 5458 5459 5459 5460 5460 5461 5461 5462 5463 5463 5464 5465 5466 5467 5467 5468 5468 5468 5468 5468 5468 5468 5467 5467
5444 5445 5445 5445 5445 5446 5446 5446 5447 5448 5448 5449 5449 5449 5449 5449 5450 5450 5450 5449 5450 5450 5451 5451 5452 5452 5453 5453 5454 5454 5455 5456 5457 5457 5458 5458 5458 5458 5458 5458 5458 5458 5458
5436 5436 5437 5437 5437 5437 5437 5438 5438 5439 5439 5440 5440 5441 5441 5441 5441 5442 5441 5441 5441 5442 5442 5443 5443 5444 5444 5444 5445 5445 5446 5446 5447 5447 5448 5449 5449 5449 5449 5449 5448 5448 5448
5428 5428 5428 5429 5429 5429 5429 5430 5430 5431 5431 5432 5432 5433 5433 5433 5433 5433 5433 5433 5433 5433 5434 5434 5435 5435 5435 5436 5436 5436 5437 5437 5438 5438 5439 5440 5440 5440 5440 5440 5440 5440 5441
5420 5420 5420 5421 5421 5421 5421 5422 5422 5422 5423 5423 5424 5425 5425 5425 5425 5426 5425 5425 5425 5425 5426 5426 5427 5427 5427 5427 5428 5428 5429 5429 5429 5430 5431 5431 5432 5432 5432 5432 5433 5433 5433
5412 5412 5413 5413 5413 5413 5414 5414 5414 5414 5415 5415 5416 5416 5417 5417 5417 5417 5417 5417 5417 5418 5418 5418 5419 5419 5419 5419 5420 5420 5421 5421 5421 5422 5423 5423 5424 5424 5425 5425 5426 5426 5427
5405 5405 5405 5406 5406 5406 5406 5406 5406 5407 5407 5407 5408 5408 5409 5409 5409 5409 5409 5410 5410 5410 5410 5411 5411 5411 5412 5412 5412 5412 5413 5413 5414 5414 5415 5416 5416 5417 5418 5419 5419 5420 5421